Lapse_Rate
6.5 6.1 6.0 6.2 6.3 6.7 7.2 5.4 6.5 6.5 6.4 6.0 7.8 8.0 9.0 8.8 8.6 9.6 9.5 6.9 7.0 7.1 7.3 6.8 6.8 6.4 6.4 6.5 6.2 6.4 6.3 6.2 6.1 6.3 6.3 6.3 6.0 5.8 6.1 6.2 6.3 6.2 6.1
6.2 6.6 6.6 6.9 7.0 6.6 6.7 5.8 5.6 6.5 5.4 7.2 7.9 7.6 8.6 9.2 8.5 8.7 9.6 9.1 6.9 6.9 6.9 6.7 6.8 6.7 6.5 6.3 6.4 6.3 6.4 6.3 6.2 6.0 6.1 6.2 6.0 6.0 5.8 5.9 6.0 6.3 6.1
5.8 6.0 6.9 7.1 7.2 6.7 6.0 6.6 5.9 7.3 6.2 8.1 5.6 7.8 8.7 7.8 8.5 8.6 8.9 9.0 9.0 6.9 6.7 6.6 6.5 6.7 6.7 6.5 6.5 6.4 6.3 6.2 6.5 6.0 6.1 6.1 5.9 5.8 5.9 5.9 5.7 5.8 5.8
5.5 5.9 6.9 7.6 7.1 6.7 6.6 6.9 7.1 8.0 7.9 8.5 7.7 6.3 8.3 8.5 8.3 8.4 8.7 8.7 8.5 9.6 7.3 6.8 6.6 6.5 6.7 6.9 6.6 6.4 6.2 6.2 6.0 6.1 5.9 5.7 5.7 5.7 5.8 5.8 5.7 5.9 5.9
5.8 6.1 6.9 7.6 6.6 7.4 7.0 7.2 7.5 7.9 8.1 8.4 8.4 8.0 7.9 8.7 8.6 9.3 8.3 8.3 8.0 8.7 9.3 6.6 6.6 6.5 6.6 6.8 6.7 6.7 6.4 6.4 6.2 6.1 5.9 6.0 5.9 5.7 5.6 5.6 5.6 5.6 5.6
6.0 5.9 6.6 6.6 6.8 7.8 7.8 7.7 7.5 7.3 7.8 7.7 8.8 8.1 8.0 8.3 8.2 8.6 9.1 9.3 8.2 8.2 8.8 8.1 8.1 8.4 6.7 7.0 6.6 6.6 6.7 6.4 6.1 6.0 5.9 5.9 6.0 5.8 5.8 5.8 5.8 5.7 5.6
5.7 5.8 7.1 6.6 6.8 7.4 7.6 7.2 7.5 7.2 7.7 7.1 8.5 8.4 8.2 8.1 8.0 8.2 8.7 9.4 8.7 8.5 8.0 7.9 8.7 8.3 8.3 6.8 6.3 6.3 6.4 6.2 6.4 6.4 6.3 5.9 6.0 6.2 6.1 6.0 5.9 6.1 5.1
5.5 5.9 6.4 7.0 6.8 7.7 6.7 6.8 7.0 7.6 7.8 7.2 8.6 8.5 8.4 8.7 8.6 8.3 8.1 8.3 7.9 8.7 8.3 7.6 7.3 7.1 7.7 8.1 6.6 5.6 5.3 5.6 5.7 5.6 5.5 5.4 5.6 5.5 5.5 5.5 5.6 6.0 5.7
5.9 5.7 5.9 6.7 6.7 7.1 7.8 6.8 7.0 7.2 8.3 7.0 6.6 8.5 8.2 7.9 8.6 8.1 7.5 7.9 7.4 8.5 8.2 7.7 7.5 7.2 7.1 7.7 7.4 6.6 5.5 5.3 5.6 5.6 5.4 5.3 5.3 5.4 5.5 5.3 5.2 5.2 5.3
6.5 6.1 5.9 6.1 6.5 7.4 7.2 6.9 6.7 7.1 7.1 8.4 7.0 6.8 6.6 7.3 8.3 8.1 8.4 8.0 7.7 8.0 8.0 8.3 8.2 7.6 7.4 8.1 6.3 6.0 5.9 5.9 5.7 5.8 5.8 5.7 5.5 5.4 5.4 5.3 5.1 5.2 5.2
6.4 6.7 6.0 6.0 6.3 6.8 6.8 6.4 5.8 5.6 7.0 8.2 8.4 7.3 6.7 7.1 6.8 8.5 8.1 8.6 8.0 8.3 8.1 7.7 8.3 8.5 7.7 7.8 8.2 7.0 5.8 6.0 6.1 6.0 5.9 6.0 5.9 5.9 6.0 6.0 5.8 5.7 5.6
7.4 6.4 6.4 6.1 6.1 6.6 6.5 6.5 5.8 5.6 6.2 6.7 7.4 7.6 8.6 8.7 8.7 8.6 8.5 7.9 8.6 8.8 8.6 8.4 7.8 8.1 8.2 8.3 7.6 6.5 6.1 5.7 5.9 6.1 6.2 6.0 6.1 6.2 6.5 6.6 6.7 6.7 6.6
7.2 6.7 5.9 6.0 6.5 5.7 6.2 6.3 5.4 5.5 5.3 5.8 5.4 7.2 7.7 8.2 8.1 8.3 8.4 8.3 8.6 8.7 8.5 8.5 8.4 7.8 7.8 7.5 8.0 6.4 6.3 5.7 5.7 5.9 6.1 6.2 6.2 6.2 6.3 6.4 6.7 6.9 7.0
6.9 6.3 5.7 6.2 5.9 5.8 6.0 5.6 6.2 6.1 5.4 5.4 5.0 5.3 7.0 7.4 7.2 7.7 8.3 8.6 8.2 8.5 8.0 8.2 8.1 8.3 7.6 7.3 7.4 5.3 7.5 6.3 5.6 5.6 5.5 5.6 6.2 6.2 6.4 6.2 6.1 6.3 6.5
7.2 5.9 5.9 5.9 5.9 5.7 5.6 5.5 6.6 4.9 4.6 5.1 5.0 4.8 5.9 6.8 6.9 7.4 7.5 8.1 8.8 8.1 8.3 8.8 9.0 7.3 7.6 7.5 7.0 7.2 7.4 6.7 5.8 6.2 6.0 5.7 5.4 5.8 6.0 6.0 6.1 6.1 5.8
5.8 6.5 5.8 6.0 5.9 5.6 5.3 5.1 6.1 5.1 4.2 4.8 5.1 4.2 4.2 6.0 6.2 6.8 7.5 7.8 8.0 8.9 8.4 9.1 8.9 8.2 7.5 7.7 6.9 7.0 7.6 6.0 6.2 6.3 6.3 6.4 6.1 5.8 5.8 5.5 5.3 5.2 4.7
5.3 5.9 5.8 5.7 5.7 5.5 5.1 4.9 5.7 5.7 4.5 4.3 3.8 3.4 3.6 4.0 5.8 6.4 6.4 7.3 7.8 8.0 8.7 9.0 8.2 7.7 6.8 7.4 7.8 7.2 7.2 7.5 8.4 6.1 6.0 5.6 5.6 5.9 6.0 5.9 5.4 4.5 3.9
4.7 5.5 5.9 5.8 5.7 5.7 5.1 4.8 5.3 5.9 4.7 4.1 3.7 3.7 3.4 4.1 3.5 4.1 5.5 5.4 6.9 7.1 8.7 7.7 8.9 8.0 6.9 7.2 7.4 7.3 7.9 8.6 8.0 7.9 5.0 4.2 5.1 5.9 6.2 6.1 6.0 5.7 5.5
4.0 5.0 5.6 5.7 5.7 5.6 5.1 4.7 5.1 5.4 4.9 4.6 4.4 3.9 3.1 3.6 3.8 5.5 5.2 5.7 6.4 6.3 6.8 8.1 8.9 8.2 8.0 7.9 7.8 7.2 7.2 7.4 6.9 6.3 5.2 5.4 5.4 5.3 5.1 5.2 5.1 5.4 5.4
3.4 4.2 4.8 5.4 5.5 5.6 5.2 5.1 4.8 5.1 5.1 4.9 4.5 4.5 4.7 4.9 4.5 4.2 5.1 5.0 5.9 6.3 6.7 7.4 9.0 9.1 8.2 8.5 7.6 8.4 9.0 8.7 8.3 8.3 7.3 6.6 5.8 5.5 5.6 6.0 6.1 5.8 5.6
3.0 3.4 4.2 5.1 5.0 5.6 5.8 5.0 4.7 4.6 4.9 4.8 4.5 4.5 4.7 4.6 3.3 4.3 6.5 5.6 5.9 6.4 7.5 8.6 8.9 9.0 9.1 9.0 8.5 9.4 8.7 9.4 9.2 7.8 7.7 7.9 8.7 8.9 8.9 7.1 6.7 6.9 6.6
2.9 3.0 3.7 4.5 4.7 5.2 2.6 0.6 3.8 4.8 4.6 4.7 4.9 4.2 4.4 2.6 2.7 2.1 2.5 4.0 6.0 6.3 6.9 8.7 9.0 8.8 8.4 7.7 8.9 8.4 8.9 8.9 8.7 7.0 8.0 9.5 9.2 9.4 9.6 9.5 8.4 6.3 6.2
2.6 2.6 3.2 4.0 4.4 4.1 -1.0 -1.4 0.0 5.3 5.0 5.1 5.0 4.7 4.5 5.0 3.4 5.1 2.2 2.6 3.1 3.5 5.4 7.2 7.7 8.2 8.4 7.7 7.2 6.2 7.3 7.8 8.9 9.5 7.3 9.2 9.9 9.6 9.7 9.6 7.3 6.4 5.8
2.2 2.5 2.7 3.2 3.9 4.1 -2.1 -2.6 -1.0 3.9 5.1 5.2 4.9 4.8 4.6 4.7 4.5 4.9 5.9 6.1 6.4 6.1 5.1 6.9 7.2 7.9 8.0 7.3 6.2 7.1 6.7 6.8 7.0 7.7 7.8 8.8 9.7 9.6 9.9 9.5 7.8 6.7 6.2
3.4 2.8 3.0 2.8 2.9 3.3 -3.1 -3.7 -1.6 3.9 5.3 4.8 4.6 4.7 4.5 4.8 2.8 0.9 4.8 7.2 7.1 6.8 4.6 4.5 4.9 4.0 3.7 3.9 5.2 6.8 7.0 6.9 8.9 9.2 9.0 9.3 9.5 9.5 9.8 9.8 9.5 7.6 7.3
2.7 3.6 3.1 2.5 1.7 2.9 -3.5 -4.7 -1.8 5.2 5.0 4.5 4.0 4.1 0.3 3.7 -1.0 0.1 5.0 7.3 7.4 6.8 6.4 4.8 4.6 1.3 2.8 2.4 1.6 5.7 8.5 9.0 9.1 9.0 9.1 9.2 9.5 9.5 9.1 9.9 9.9 9.6 9.7
Wind_Speed
3 2 2 2 1 2 3 3 3 5 4 3 1 1 1 2 2 1 2 2 2 2 2 4 8 10 9 9 10 10 10 10 8 7 7 7 5 6 4 3 3 2 3
5 4 4 3 3 2 2 3 2 3 4 4 3 0 2 4 4 2 3 4 2 2 2 4 6 8 9 10 10 11 10 11 9 9 8 7 7 6 6 6 5 5 6
7 5 4 4 4 4 4 2 0 3 4 4 4 2 2 5 5 3 1 0 3 4 4 5 7 8 6 8 10 11 11 11 10 9 9 9 9 9 9 8 8 8 7
10 7 5 5 3 4 3 2 1 2 2 3 3 1 2 3 4 2 1 1 2 3 6 5 5 7 8 6 8 9 10 11 11 11 11 11 11 10 10 10 10 10 9
10 10 8 5 4 4 2 1 1 2 2 2 2 3 3 4 4 5 4 2 2 3 3 5 4 5 6 5 5 6 8 9 10 11 12 11 11 11 11 11 11 11 11
12 11 8 6 5 4 3 3 1 2 1 2 3 4 4 3 4 4 5 7 9 4 3 2 4 4 3 2 2 2 5 7 7 9 10 10 11 11 12 13 13 14 14
13 12 9 7 6 4 3 3 3 3 3 2 3 4 4 3 3 3 4 5 7 7 6 5 3 2 5 5 5 4 3 2 1 3 4 6 9 11 11 11 13 13 13
12 12 11 6 6 5 5 5 4 3 2 2 2 2 2 3 3 3 2 3 4 5 6 7 6 6 5 5 7 8 7 6 5 6 6 5 5 2 2 1 3 2 6
12 12 12 10 7 6 5 5 5 5 3 3 1 1 2 3 2 2 3 2 2 3 4 5 6 5 5 6 4 5 7 6 6 5 5 5 5 4 3 3 4 5 5
12 11 12 12 10 7 6 6 6 5 3 4 3 2 2 1 3 3 4 3 2 1 1 2 4 4 4 3 3 3 3 4 5 5 5 5 6 5 5 5 5 5 5
13 13 13 13 9 7 6 7 7 6 5 3 4 3 2 2 2 3 2 4 4 4 3 3 2 3 4 3 3 2 2 2 1 2 3 2 2 2 2 3 3 3 4
10 13 14 13 12 9 8 7 7 8 6 4 5 4 4 3 4 4 4 2 5 4 4 5 5 5 6 6 6 4 5 5 4 3 3 1 1 2 3 3 4 4 4
10 12 12 10 8 11 10 8 8 8 7 6 6 5 4 4 2 3 3 2 3 3 3 4 6 7 7 8 8 8 8 8 9 8 7 7 7 6 6 6 7 7 7
11 12 12 12 12 12 11 10 7 7 7 6 7 6 5 5 4 4 3 4 3 4 3 4 3 5 5 8 7 6 8 10 10 11 12 12 13 12 12 12 12 12 12
10 13 13 13 11 12 12 10 8 9 8 8 7 7 6 5 5 4 4 4 4 3 4 3 3 3 2 2 4 7 7 7 10 12 13 15 17 17 17 16 17 17 18
13 12 14 13 12 12 12 12 9 9 10 8 7 9 9 7 6 5 5 5 4 5 5 3 4 2 1 2 4 6 6 7 10 11 12 14 16 17 17 17 16 17 18
14 14 14 14 14 13 13 13 12 11 12 11 11 11 11 10 8 7 6 6 6 5 6 4 4 3 3 6 6 6 7 7 7 8 11 12 12 12 11 10 11 11 12
16 15 15 15 15 14 14 15 15 13 14 14 14 12 13 9 11 10 8 9 7 6 6 7 4 5 6 4 5 5 6 6 6 5 9 10 7 7 8 8 7 7 7
17 18 16 16 16 15 15 16 16 16 16 16 15 15 15 11 10 9 9 8 8 6 6 6 6 3 3 4 4 5 5 5 8 6 6 8 9 9 8 7 8 10 11
18 18 17 17 17 17 17 16 17 17 17 16 16 15 12 13 12 13 10 10 8 8 7 7 7 6 5 4 5 6 6 6 5 5 6 11 8 6 9 7 8 9 9
18 19 18 17 17 17 15 17 17 18 17 17 16 14 15 16 15 14 9 10 10 9 7 8 8 7 6 6 7 6 7 5 4 5 5 5 5 7 10 10 10 11 11
19 18 19 19 18 15 17 19 18 16 17 17 16 15 14 15 15 16 15 12 12 12 10 8 8 9 9 7 5 6 5 6 7 6 5 5 4 7 10 12 6 10 13
19 20 19 19 20 19 19 22 23 16 17 16 16 15 13 12 15 13 14 14 13 13 11 10 10 10 7 7 4 6 6 6 7 5 5 7 6 8 11 11 4 10 13
20 19 19 19 18 17 20 23 25 19 15 16 17 17 16 15 15 16 14 13 14 14 14 11 13 9 7 4 5 4 3 5 5 6 5 6 6 7 7 10 8 12 12
17 18 16 19 21 20 22 22 21 18 17 17 15 16 16 15 14 15 11 13 14 12 11 16 7 4 6 7 4 4 4 5 7 6 3 6 4 6 7 8 9 5 13
18 15 18 19 22 21 19 22 23 14 15 12 13 15 14 13 12 15 12 14 14 11 10 9 7 6 7 6 9 7 4 6 6 5 3 5 6 6 6 5 5 13 12
Wind_Direction
249 265 303 316 279 274 292 327 337 355 34 350 355 58 114 68 62 77 99 112 181 203 283 193 197 195 192 192 190 194 194 198 201 201 193 196 195 188 209 222 257 214 258
241 254 269 284 287 289 309 303 14 11 32 20 116 49 343 73 73 64 104 146 164 229 216 196 198 194 193 199 202 206 212 213 213 212 216 209 219 224 218 226 237 249 264
234 261 253 253 265 274 248 222 96 52 46 69 39 2 112 69 59 87 141 84 166 162 175 175 185 193 198 207 216 218 220 222 228 220 217 223 224 237 238 239 242 249 257
232 240 252 251 267 266 225 213 10 359 60 31 36 333 79 44 32 61 119 46 115 131 157 177 175 194 196 211 224 229 233 230 231 233 228 224 234 235 245 251 254 256 260
230 236 245 246 235 250 251 220 91 13 45 53 64 94 70 76 57 60 59 54 115 140 101 134 172 181 208 224 238 237 237 236 233 235 234 242 241 238 243 251 257 258 260
228 229 238 232 218 237 230 181 127 102 81 77 82 92 82 80 62 48 67 68 67 95 83 95 157 146 204 215 209 228 231 224 224 229 232 239 243 238 245 252 256 256 259
227 222 229 225 198 231 209 169 149 171 137 123 153 124 98 89 85 72 65 57 70 71 71 61 77 75 108 86 68 77 76 75 292 252 260 254 251 253 257 260 262 268 291
216 211 214 213 208 212 202 189 187 173 132 159 159 162 179 154 122 77 77 77 63 69 70 72 81 80 79 73 73 71 71 67 66 74 74 57 46 94 116 12 3 336 249
213 214 210 210 206 220 216 191 198 200 177 168 192 311 183 230 180 152 151 125 91 94 94 95 86 86 79 88 87 79 71 71 59 52 54 55 55 55 49 47 44 36 30
212 210 211 210 210 216 222 194 202 213 193 198 170 167 63 40 247 202 193 188 208 220 137 148 123 128 133 125 103 78 89 78 80 72 59 42 32 28 28 32 42 48 46
217 214 212 209 209 215 215 199 190 201 197 226 206 166 176 183 187 261 244 196 212 210 210 230 221 192 186 194 184 166 203 208 143 112 98 89 64 43 37 36 37 41 45
217 215 211 209 212 214 213 204 196 195 202 214 211 201 201 210 203 227 245 231 236 197 224 231 227 223 218 217 221 226 239 248 264 281 290 302 305 309 313 311 301 294 294
218 210 207 207 207 211 210 201 188 186 197 207 207 218 223 223 203 214 240 204 239 203 225 245 239 238 234 227 230 222 233 246 251 256 265 278 287 290 289 290 291 292 293
216 208 206 207 205 205 205 199 196 196 196 206 204 219 224 215 205 206 220 223 209 195 201 255 205 240 231 236 238 234 253 256 262 270 269 266 267 269 272 274 274 276 278
219 206 206 205 207 205 201 195 208 198 195 201 205 206 222 205 203 203 213 226 259 246 238 194 227 193 232 237 221 224 240 245 256 264 265 264 263 265 270 274 277 277 275
211 207 211 209 207 204 201 196 204 201 198 198 210 204 211 213 202 200 207 214 228 253 254 211 212 215 226 213 194 218 233 247 256 264 272 275 272 271 278 282 280 283 284
202 205 208 208 208 203 200 199 208 202 204 204 208 209 210 205 210 204 200 204 212 222 240 197 206 193 242 231 219 217 227 248 270 263 266 269 271 275 275 273 282 290 289
202 203 206 206 209 205 201 203 208 206 209 210 212 208 216 210 206 199 205 207 214 212 240 235 202 207 227 228 240 234 245 249 274 286 281 266 248 241 251 259 269 274 283
201 203 205 206 208 207 204 208 212 210 212 216 214 209 215 192 208 207 208 203 204 208 219 247 253 228 237 225 238 248 249 239 250 258 231 222 232 239 231 223 244 264 272
198 202 202 204 207 208 209 208 211 214 216 218 219 217 205 206 207 207 207 205 208 211 209 233 248 246 237 210 245 256 241 219 257 265 255 257 263 249 215 274 277 273 275
202 199 198 202 203 209 212 211 210 214 215 220 222 213 213 210 201 205 212 207 202 209 210 225 242 243 238 233 246 264 262 287 259 250 255 268 248 242 239 249 265 259 274
204 202 202 198 201 208 202 199 204 211 212 218 220 217 217 203 200 194 200 203 203 203 213 222 234 241 241 230 247 255 277 284 304 173 262 286 265 287 285 278 282 278 283
201 203 203 201 205 207 188 195 198 208 210 217 218 215 214 215 211 208 205 211 211 208 223 219 231 237 251 238 228 214 236 256 274 292 272 289 297 286 294 294 289 292 300
202 202 204 204 206 210 190 195 195 211 213 219 218 215 214 215 208 204 206 210 221 217 217 222 231 237 234 196 200 251 275 273 269 265 246 276 290 284 299 293 284 299 310
204 207 205 203 206 213 195 192 186 210 217 218 217 214 214 215 202 189 189 206 209 210 206 217 217 147 153 180 229 203 220 233 268 269 201 276 301 295 299 299 299 306 309
203 202 207 206 210 217 191 187 188 208 213 211 211 213 201 210 161 183 194 209 205 199 189 175 177 139 153 161 184 219 251 260 277 272 138 272 309 321 292 303 291 306 304